CAPE
82 1200 1164 425 225 48 42 6 20 28 37 136 169 79 125 179 208 276 423 34 18 447 528 895 1285 1384 1444 1433 1294 1347 1485 1424 1117 1074 1192 1223 1259 1293 1298 1399 1518 1377 1099 1171 1239 1472 1557 1824 1396
555 1335 855 322 85 38 49 56 49 39 102 243 207 124 208 610 641 659 329 39 41 226 539 731 987 1001 644 1142 1111 1200 1260 1640 1562 1515 1216 1133 1142 1145 1232 1395 1282 1201 1166 1285 1534 1542 1777 1874 1711
818 580 654 218 67 62 54 65 50 96 85 76 145 229 287 679 550 551 350 75 84 304 394 289 47 25 106 505 1180 1070 1258 1587 1443 1729 1651 1522 1303 1240 1208 1159 1191 1300 1485 1581 1864 1576 1776 1623 1749
702 392 350 252 89 92 92 72 72 165 184 216 148 289 608 621 548 518 241 31 90 340 182 30 11 29 361 377 792 765 1369 1658 1439 1552 1266 1668 1646 1655 1559 1466 1432 1501 1751 1869 1862 1894 1490 1427 1499
187 192 198 205 152 101 107 118 114 186 176 206 203 181 546 660 511 426 127 70 221 239 231 87 97 112 547 623 1082 914 1187 1603 1099 1451 1524 1530 1481 1495 1492 1608 1711 1810 1671 1854 1762 1914 1677 1450 1230
361 87 177 166 141 92 118 126 192 240 236 378 277 238 801 675 514 319 113 121 192 197 262 166 187 132 328 830 1131 1054 604 855 1129 1466 1587 1486 1518 1439 1500 1482 1550 1564 1624 1784 1714 1390 1033 942 1097
16 202 153 148 137 137 184 160 229 254 233 342 339 425 836 771 597 322 154 165 369 572 268 454 204 364 706 853 1574 922 624 661 1100 1187 1555 1532 1552 1446 1477 1363 1625 1557 1776 1513 1187 1200 1144 813 1163
0 379 212 142 132 173 202 216 176 255 330 533 431 514 626 862 625 375 174 508 777 731 725 476 486 985 874 877 1661 499 387 609 823 1322 1501 1336 1417 1424 1532 875 1555 1665 1361 1275 1173 1089 1121 1219 845
29 191 194 185 191 177 251 282 379 432 535 561 636 625 823 827 735 478 412 713 701 1065 1303 635 1019 1215 1375 1107 892 735 686 842 1067 1125 1386 878 697 895 605 1055 1240 1350 1330 1307 1154 1064 1170 1716 849
0 0 2 19 215 328 260 188 501 630 645 808 863 792 930 810 808 758 655 708 767 735 1043 1005 872 1154 1121 517 916 1254 841 725 830 901 871 988 892 827 864 810 888 1422 1325 1051 929 900 912 815 1035
0 0 0 0 52 267 452 485 497 657 640 672 867 957 988 883 814 791 817 738 522 670 797 976 1012 1240 1207 359 684 1038 976 1041 1048 1233 1070 881 631 240 207 244 143 567 483 555 715 816 1034 1367 1462
0 0 0 0 187 404 595 655 699 712 750 550 785 1018 1047 968 822 845 782 487 425 603 821 933 689 1138 1014 801 486 676 864 587 756 783 1035 599 187 61 135 51 104 183 130 197 573 949 1494 1620 1453
0 0 0 0 380 487 609 763 836 802 792 827 908 1019 986 963 825 811 756 597 577 577 671 690 622 985 889 892 672 535 736 521 604 650 514 0 0 0 37 50 93 249 506 718 1034 1498 1470 1689 1722
0 0 0 0 383 603 655 595 831 834 855 1006 930 941 968 936 782 772 698 671 571 607 563 394 713 845 766 724 675 583 714 455 587 209 53 382 1 81 21 278 562 951 1056 994 1147 1241 1400 1527 1417
0 0 0 0 2 16 0 223 554 739 969 1152 1051 943 1001 960 744 686 580 586 549 530 446 149 679 578 818 696 834 787 443 353 458 230 511 568 521 1175 1524 909 955 983 1341 1676 1470 1457 1141 970 980
0 0 0 0 0 0 0 3 54 372 954 1155 1181 1111 1063 1037 841 692 584 811 880 653 245 344 490 518 829 747 757 639 449 313 743 894 500 791 1171 1848 1747 1028 868 1394 1544 1297 1155 785 724 808 747
0 0 0 0 0 0 0 0 39 642 776 992 1207 1283 1152 1122 996 873 749 751 881 927 685 688 501 514 539 695 590 537 570 454 369 625 790 1151 1301 1561 1432 994 1093 1519 990 829 874 1163 947 751 500
0 0 0 0 0 0 0 0 0 17 670 802 1073 1270 1344 1233 1091 1024 868 829 1006 1064 1046 1047 718 776 741 714 704 577 452 490 314 294 702 926 1137 1440 1388 1062 1298 1277 1090 809 553 1064 829 906 809
0 0 0 0 0 0 0 0 0 0 422 641 1018 1177 1340 1349 1236 1070 918 759 811 990 1067 1084 1011 981 959 725 630 610 437 337 529 185 534 667 793 1235 1405 701 1012 1223 1164 1330 819 1012 722 494 809
0 0 0 0 0 0 0 0 0 0 0 245 921 1114 1151 1331 1356 1240 1076 814 802 928 1026 1168 1092 1110 1044 746 749 635 495 334 476 289 249 529 409 762 1103 977 605 1125 799 1406 1188 1312 647 639 978
0 0 0 0 0 0 0 0 0 0 0 0 248 903 1073 1020 1333 1416 1204 980 844 938 1120 1216 1219 1165 1228 733 1006 926 670 743 736 618 288 193 295 320 1017 1191 979 1114 1335 623 982 1170 1138 193 599
0 0 0 0 0 0 0 0 0 0 0 0 3 342 743 1041 1126 1417 1381 1151 986 938 1144 1188 1402 1363 1394 987 910 862 537 626 673 476 308 36 112 227 343 1172 1320 1214 709 1166 1105 885 1099 775 314
0 0 0 0 0 0 0 0 0 0 0 0 0 0 264 681 952 1178 1474 1307 1102 1086 1161 1244 1559 1528 1333 1204 1108 1036 714 460 857 796 750 769 197 182 116 829 1149 957 1056 1065 1496 1387 1531 960 541
0 0 0 0 0 0 0 0 0 0 0 0 0 0 0 312 689 1089 1340 1421 1268 1247 1258 1230 1544 1697 1656 1568 1471 1129 791 656 820 774 560 606 487 334 96 295 1074 1013 744 1174 739 1502 1598 880 1054
0 0 0 0 0 0 0 0 0 0 0 0 0 0 0 55 486 931 1368 1451 1393 1313 1390 1325 1547 1716 1712 1658 1555 1249 1083 1125 1043 793 389 96 196 127 15 384 789 1009 1453 1100 1236 1628 1257 1138 1084
0 0 0 0 0 0 0 0 0 0 0 0 0 0 0 127 394 878 1319 1474 1509 1386 1497 1440 1599 1793 1724 1653 1571 1397 1276 1225 1089 741 124 747 568 218 144 676 762 927 1261 1178 1187 1226 1121 729 1289
0 0 0 0 0 0 0 0 0 0 0 0 0 0 0 126 391 651 1210 1455 1562 1541 1568 1566 1602 1865 1773 1616 1636 1561 1475 1315 972 719 445 782 835 669 582 861 1015 1098 1044 1103 1027 957 878 1232 1611
0 0 0 0 0 0 0 0 0 0 0 0 0 12 120 309 409 701 1070 1367 1510 1641 1636 1636 1675 1841 1852 1667 1693 1657 1501 1485 1187 1022 521 278 520 600 791 1198 1207 1126 1208 1282 1380 782 1129 1879 1871
0 0 0 0 0 0 0 0 0 0 0 0 0 0 241 424 481 821 1254 1403 1554 1640 1657 1771 1716 1784 1891 1798 1646 1613 1608 1405 1385 1127 1104 793 396 737 896 1255 1205 1202 1226 1077 1010 1034 1078 1558 1565
0 0 0 0 0 0 0 0 0 0 0 0 0 14 43 505 722 929 1326 1518 1555 1682 1640 1770 1786 1797 1886 1823 1832 1782 1751 1590 1399 1230 1112 1146 1001 650 896 1016 1102 1084 1218 1151 1029 1020 1052 1340 1774
CIN
-29 -98 -114 -147 -14 -2 -2 -2 -4 -1 -2 -4 -4 -2 -16 -8 -5 -4 -27 -97 -131 -28 -25 -1 -9 -3 -3 -4 -6 -9 0 -1 -8 -5 0 0 0 -1 0 -1 -1 -12 -23 -21 -16 -6 -9 -8 -28
-128 -120 -127 -60 -4 -5 -2 -2 -2 -2 -20 -10 -6 -11 -3 -2 -24 -44 -55 -113 -112 -21 -9 -10 -33 -38 -41 -12 -7 -6 -5 0 0 0 0 0 -3 -1 -1 0 -2 -9 -14 -10 -4 0 0 -2 -11
-145 -169 -37 -22 -9 -1 -3 -2 -2 -17 -26 -15 -4 -9 -1 -2 -62 -26 -46 -112 -54 -10 -16 -56 -114 -144 -117 -36 -4 -3 -4 0 -1 0 0 0 0 0 0 0 -3 -9 -3 -1 0 -3 -2 -8 -5
-102 -84 -62 -32 -2 -13 -2 -4 -3 -10 -12 -16 -4 -4 -31 -45 -51 -25 -76 -97 -45 -13 -47 -125 -120 -130 -76 -41 -9 -8 -2 0 0 0 -4 0 0 0 0 0 0 -1 0 -1 0 0 -5 -9 -10
-116 -71 -22 -18 -47 -11 -13 -11 -7 -2 -5 -8 -11 -10 -26 -40 -47 -43 -77 -46 -22 -33 -17 -118 -86 -88 -58 -28 -1 -7 -5 0 -5 0 0 0 0 0 0 0 0 0 0 0 0 0 -3 -9 -10
-17 -34 -17 -1 -3 -16 -8 -8 -2 -3 -5 -15 -7 -4 -30 -48 -40 -40 -52 -27 -20 -8 -53 -114 -104 -102 -78 -23 -4 -5 -16 -8 -6 0 0 0 0 -1 0 -1 -1 -2 0 -1 -1 -4 -10 -12 -12
-19 -4 -7 -8 -12 -5 -5 -7 -2 -3 -2 -1 -14 -1 -34 -28 -26 -35 -28 -11 -5 -3 -71 -86 -87 -76 -44 -23 0 -8 -19 -14 -3 -1 0 0 0 -1 -1 0 -1 0 0 -3 -6 -7 -8 -19 -13
0 -7 -3 -7 -2 -2 -9 -9 -9 -2 -2 -17 -14 -1 -12 -33 -31 -24 -18 -2 -1 -3 -35 -66 -52 -2 -23 -1 -2 -23 -34 -10 -6 0 0 -1 0 0 0 -10 -3 -2 -1 0 -7 -11 -15 -18 -31
-81 -2 -2 -1 -1 -3 -11 -8 -14 -19 -4 -14 -19 -7 -10 -65 -22 -9 -4 -2 -4 -2 -1 -9 -1 0 0 -1 -3 -13 -12 -3 -3 -2 0 -9 -2 -2 -12 -5 -7 -2 -4 -8 -19 -24 -24 -13 -36
0 -1 -4 -32 -11 -6 -14 -12 -4 -8 -5 -5 -28 -48 -47 -60 -17 -2 -1 -1 -1 -2 -1 -1 -1 -1 -1 -1 -1 -1 -1 -1 -1 -1 0 -1 -1 -1 -3 -7 -22 -10 -26 -36 -45 -46 -43 -36 -1
0 0 0 0 -30 -12 -11 -14 -12 -3 -3 -1 -2 -38 -46 -34 -3 -1 -1 -1 -3 -2 -1 -1 -1 -1 -1 -1 -1 -1 0 -1 -1 0 -1 -1 -1 -5 -11 -6 -18 -4 -46 -4 -18 -7 -5 -1 0
0 0 0 0 -19 -12 -9 -13 -10 -7 -4 -19 -14 -37 -40 -20 -1 -1 -1 -3 -2 -2 -1 0 -1 -1 -1 0 -1 -1 -1 -1 0 -1 -1 -1 -1 -19 -9 -33 -22 -38 -22 -30 -21 -11 -2 -1 -3
0 0 0 0 -12 -11 -13 -10 -13 -16 -19 -31 -37 -46 -32 -7 -1 -1 -2 -2 -2 -1 -3 -1 -3 -2 -1 -1 -1 -1 -1 -1 -1 -1 -2 0 0 0 -41 -67 -34 -26 -5 -7 -14 -2 -3 -2 -6
0 0 0 0 -8 -17 -18 -8 -17 -6 -27 -37 -49 -43 -31 -17 -2 -1 -1 -2 -3 -3 -3 -2 -1 -4 -3 -1 -4 -2 -1 -1 -1 -12 -59 -15 0 -25 -25 -7 -2 -1 -1 -1 -2 -7 -13 -3 -1
0 0 0 0 -4 -54 -4 -7 -11 -21 -37 -35 -42 -43 -37 -24 -16 0 -3 -1 -1 -1 -3 -25 -2 -8 -4 -3 -1 0 -6 -1 -1 -12 -5 -8 -2 0 0 -1 -1 -1 -6 -17 -4 -11 -6 -2 -1
0 0 0 0 0 0 0 0 -41 -38 -45 -30 -31 -37 -44 -36 -31 -21 -4 -3 -2 -2 -11 -8 -1 -2 -1 -1 -1 -1 -5 -3 -1 -2 -2 -5 0 0 -4 -1 -2 -1 -4 -1 -2 -2 -2 0 -2
0 0 0 0 0 0 0 0 -35 -64 -42 -23 -35 -37 -40 -38 -46 -34 -9 -1 -2 -3 -3 -5 -12 -2 -3 -1 -1 -1 -1 -4 -2 -1 0 -1 0 0 -3 -1 -2 -6 -2 -3 -3 0 -5 -1 -2
0 0 0 0 0 0 0 0 0 -27 -54 -38 -35 -33 -41 -32 -40 -48 -30 -3 -2 -2 -2 -5 -8 -2 -1 -1 -1 -3 -2 -2 -8 -4 -1 -1 0 -1 -7 -1 -1 -4 0 -1 -5 -11 -3 -5 -3
0 0 0 0 0 0 0 0 0 0 -47 -53 -46 -42 -30 -29 -21 -46 -52 -37 -7 -2 -2 -1 -2 -4 -5 -1 -1 -1 -2 -1 -1 -13 0 -5 -1 -1 -10 -2 -4 -2 -4 -4 -12 -1 -3 -2 -2
0 0 0 0 0 0 0 0 0 0 0 -23 -44 -47 -32 -26 -26 -48 -73 -61 -40 -24 -13 -4 -6 -3 -11 -5 -2 -2 -2 -2 -2 -2 -10 -6 -9 -7 -2 -6 -2 -1 0 -5 -9 -9 -2 -1 -2
0 0 0 0 0 0 0 0 0 0 0 0 -41 -55 -49 -33 -30 -50 -74 -80 -64 -49 -37 -23 -20 -8 -15 -12 -2 -1 -1 -2 -2 -1 -11 -27 -27 -21 -3 -2 -6 -1 -4 -2 -9 -3 -11 -1 -3
0 0 0 0 0 0 0 0 0 0 0 0 -35 -50 -58 -57 -43 -33 -62 -85 -85 -69 -51 -38 -32 -17 -15 -21 -2 -6 -5 -1 -3 -2 -3 -19 -40 -26 -13 -2 -1 -3 -3 -1 -2 -2 -3 -11 -10
0 0 0 0 0 0 0 0 0 0 0 0 0 0 -67 -70 -60 -51 -40 -61 -69 -80 -73 -54 -30 -25 -16 -26 -5 -7 -9 -3 -3 -5 -2 -2 -18 -39 -27 -1 -1 -4 -1 -4 -1 0 -2 -2 -2
0 0 0 0 0 0 0 0 0 0 0 0 0 0 0 -98 -82 -51 -42 -50 -71 -81 -87 -79 -54 -36 -21 -18 -20 -16 -8 -3 -5 -1 -2 -2 -2 -16 -35 -7 -1 -1 -1 -1 -4 -1 -1 -10 -4
0 0 0 0 0 0 0 0 0 0 0 0 0 0 0 -143 -99 -75 -71 -62 -73 -91 -105 -105 -101 -70 -41 -27 -18 -22 -16 -4 -1 -2 -11 -26 -8 -10 -62 -15 -1 -1 0 -2 -1 0 -3 -3 -3
0 0 0 0 0 0 0 0 0 0 0 0 0 0 0 -121 -87 -65 -62 -72 -72 -101 -124 -129 -136 -106 -80 -52 -39 -29 -23 -3 -1 -17 -60 -9 -5 -28 -38 -7 -1 -5 -1 -1 -1 -1 -2 -1 -1
0 0 0 0 0 0 0 0 0 0 0 0 -1 0 0 -85 -66 -66 -56 -78 -89 -106 -138 -155 -152 -137 -115 -87 -52 -37 -25 -12 -4 -25 -37 -2 -1 -1 -2 -1 0 -1 0 0 0 -1 0 -4 -1
0 0 0 0 0 0 0 0 0 0 0 0 0 -16 -74 -66 -59 -58 -57 -60 -98 -101 -136 -140 -155 -153 -133 -105 -81 -54 -55 -37 -14 -18 -51 -53 -15 -4 -1 -1 -1 -1 -1 -1 0 -1 -1 -1 -5
0 0 0 0 0 0 0 -5 0 0 0 0 0 0 -50 -58 -82 -64 -61 -68 -87 -123 -135 -177 -162 -155 -145 -140 -112 -78 -53 -55 -34 -18 -18 -35 -37 -3 -1 -1 -1 0 0 -1 -7 -10 -4 -2 -9
0 0 0 0 0 0 0 -1 0 0 0 0 -4 -98 -100 -82 -65 -82 -88 -103 -95 -141 -157 -165 -176 -170 -171 -165 -141 -122 -73 -48 -48 -45 -25 -10 -10 -21 -1 -1 -4 -3 0 -1 -6 -15 -3 -4 -4
Wind_Speed
17 16 16 16 16 17 18 19 18 19 18 19 17 17 15 13 13 14 13 13 20 18 19 18 16 10 7 8 5 5 23 25 25 25 25 25 25 25 24 23 22 20 19 17 16 18 19 18 18
18 17 17 16 16 17 18 19 18 18 20 19 18 17 16 15 14 13 15 19 23 19 18 16 13 13 7 4 14 18 23 24 24 24 24 24 24 24 24 22 21 19 18 18 18 20 21 20 20
17 17 16 16 17 18 17 18 19 19 19 18 18 17 16 16 14 14 14 22 23 19 16 17 13 12 6 7 20 22 23 24 24 23 23 24 24 23 23 22 21 20 20 20 21 20 20 20 20
16 17 17 14 16 18 18 18 17 18 19 18 18 19 17 17 13 12 21 24 22 18 18 16 14 12 14 23 22 22 23 23 23 23 23 23 23 23 23 22 22 22 22 21 21 20 19 18 17
16 17 15 15 15 17 18 17 15 16 18 17 17 18 17 18 15 20 24 22 20 22 20 21 27 34 29 26 23 22 23 23 22 23 23 23 23 23 23 23 23 22 21 21 21 19 17 17 16
16 16 16 15 16 15 16 16 14 14 17 17 17 16 17 17 18 22 23 22 21 24 20 27 31 30 28 24 23 22 22 22 22 23 23 24 23 22 24 24 24 23 21 20 18 17 16 16 16
13 18 16 17 16 16 16 17 15 15 16 16 16 16 15 15 18 21 22 22 22 21 22 30 29 28 26 24 23 22 22 22 22 23 24 22 22 22 23 23 23 22 21 18 17 16 14 14 16
12 19 18 16 17 17 17 17 17 16 17 17 15 15 12 14 18 20 22 21 23 24 17 30 29 27 25 25 23 21 22 23 24 23 23 23 23 22 23 23 22 21 20 17 16 15 14 13 15
16 19 19 18 18 11 15 15 17 17 16 15 16 17 14 16 18 19 21 19 19 20 16 23 29 28 27 25 23 22 23 23 23 23 24 24 24 24 24 21 21 20 19 17 16 15 15 14 16
14 19 19 12 14 13 15 13 15 15 16 15 16 17 15 17 18 20 23 23 23 18 16 25 20 16 27 25 23 23 22 24 24 23 24 23 23 22 18 22 20 19 18 16 16 15 14 14 14
18 19 13 13 12 13 13 14 13 14 16 17 13 15 15 17 18 21 24 24 25 21 10 22 19 20 19 15 24 22 20 20 23 22 23 22 23 23 22 22 21 20 19 16 17 16 15 14 13
15 17 12 11 11 12 11 12 12 11 16 17 17 17 17 17 17 20 24 24 23 19 17 19 19 20 13 3 24 21 21 22 23 23 22 23 24 23 21 22 21 19 19 16 16 14 12 12 14
14 10 11 11 10 11 9 9 10 12 12 15 18 19 18 17 18 21 23 25 24 23 17 13 13 4 13 6 21 21 20 22 20 21 22 23 24 23 22 22 21 19 18 16 15 14 13 13 14
14 13 13 10 17 13 8 10 11 15 13 14 16 18 18 17 18 21 23 24 25 23 21 6 28 2 1 8 18 21 21 20 17 22 19 22 23 23 22 22 21 20 18 16 15 12 13 13 13
13 11 9 18 16 9 9 11 13 15 14 14 14 16 18 17 19 21 24 24 24 22 22 26 16 7 16 6 3 20 22 18 19 21 19 22 24 23 20 21 21 20 18 16 16 14 13 12 12
13 11 9 17 18 11 10 12 14 12 13 13 14 15 17 18 17 21 23 25 22 22 22 24 23 12 2 3 2 10 23 20 19 21 22 21 21 21 21 20 7 17 18 17 15 14 13 11 11
9 15 19 14 18 19 13 14 13 12 11 12 13 14 16 17 17 19 23 24 22 22 20 23 22 13 6 3 7 22 23 22 17 14 23 22 22 20 21 17 11 19 15 16 15 14 13 11 11
17 22 22 21 19 21 17 16 14 10 12 13 13 14 15 15 17 17 21 23 24 22 21 21 23 23 21 3 16 21 21 26 24 22 22 20 24 21 20 15 15 20 19 18 17 16 14 13 12
24 24 23 22 24 23 20 18 13 9 11 11 14 15 15 15 16 17 19 21 22 23 23 23 20 15 10 8 3 17 19 29 28 21 13 21 25 22 20 21 17 20 21 18 18 17 16 14 14
27 26 22 23 14 25 24 21 20 13 14 12 13 15 16 16 17 17 18 20 21 21 22 22 23 21 18 8 9 16 12 10 19 17 29 26 27 26 22 22 19 18 20 17 18 19 18 12 17
27 28 26 27 28 22 24 22 11 10 13 14 14 15 17 17 18 18 19 19 20 20 20 20 21 21 20 18 4 4 12 17 10 7 14 21 28 27 25 21 22 18 21 16 14 15 18 18 15
19 20 22 25 27 26 25 26 22 16 9 11 14 15 16 18 18 19 19 20 21 20 19 19 19 19 21 19 11 11 12 9 5 2 7 15 24 28 26 23 22 21 20 18 15 16 19 17 16
18 14 24 26 27 28 26 23 20 14 13 15 14 11 14 16 18 19 21 20 21 20 20 19 19 19 18 18 19 16 19 13 5 2 12 17 24 30 28 22 22 21 19 14 18 16 18 16 20
13 20 23 24 27 30 22 20 17 9 16 19 19 10 11 15 17 18 20 20 21 20 20 20 20 20 20 17 18 18 14 13 9 6 9 16 27 28 30 23 16 18 17 15 14 13 14 18 17
8 8 21 15 14 21 17 22 28 25 21 25 25 9 9 14 17 18 18 19 21 22 22 21 20 20 20 20 18 17 15 10 11 8 22 27 30 31 11 7 10 9 11 14 14 11 16 16 19
7 16 27 21 21 18 17 20 18 20 25 24 19 8 9 13 15 16 19 19 19 21 22 21 20 20 20 20 20 18 16 12 14 14 29 13 27 6 5 5 6 11 14 10 8 9 12 14 14
4 18 27 32 30 28 26 21 28 17 16 20 15 8 8 13 14 16 18 17 19 19 20 21 21 20 19 20 18 19 18 18 14 10 16 19 7 3 4 8 3 5 3 5 11 7 12 15 11
28 21 20 19 28 30 20 23 21 19 21 21 15 8 7 10 11 12 14 16 17 19 21 20 20 20 18 18 18 18 18 18 17 11 8 8 5 5 2 2 2 3 5 8 7 10 8 10 11
9 8 16 28 28 30 29 21 18 20 21 21 14 10 6 5 8 9 11 15 17 17 20 22 20 17 18 18 17 17 16 16 17 16 13 9 8 5 5 4 3 3 4 8 10 15 20 9 7
25 25 18 20 20 23 30 30 20 18 19 19 17 11 9 4 4 6 8 12 16 18 18 18 18 18 17 17 17 18 17 17 16 17 16 14 12 11 8 8 8 6 6 6 11 27 27 11 17
Wind_Direction
125 154 191 163 90 66 28 28 22 28 30 51 54 53 49 303 35 46 57 80 111 105 104 101 91 67 47 42 355 353 160 151 151 149 143 140 140 139 137 137 133 133 140 157 170 112 88 67 76
137 147 146 88 73 43 25 43 16 12 44 56 48 47 45 28 353 44 80 107 117 107 103 97 83 78 50 357 222 195 160 153 153 152 150 147 145 144 145 144 146 146 147 140 147 133 125 116 110
162 155 126 54 28 22 21 44 38 42 61 67 40 20 21 15 358 82 85 115 117 108 100 102 87 85 61 241 199 182 168 162 156 159 159 151 148 150 155 148 146 149 145 137 134 133 128 122 114
156 136 119 57 33 35 26 42 53 54 64 59 39 32 24 344 56 72 113 120 114 102 105 96 95 94 219 190 190 180 172 164 162 162 163 157 152 148 156 141 139 138 139 138 132 132 131 128 128
159 136 48 47 41 43 44 53 88 38 40 42 31 28 13 8 51 99 115 117 111 113 108 110 126 160 166 176 184 182 175 170 171 168 163 161 157 155 150 136 141 141 138 138 133 139 135 128 126
117 133 73 56 52 53 54 39 72 58 27 31 31 31 13 43 81 109 116 116 114 118 107 124 159 165 173 182 184 187 185 178 177 171 165 160 161 162 141 133 132 133 140 136 148 149 140 138 133
159 106 68 71 59 71 80 35 70 43 26 29 29 19 36 67 93 113 120 117 119 114 113 174 166 166 172 180 180 187 187 182 181 175 166 172 170 167 146 143 122 133 136 145 150 146 154 144 129
187 108 68 57 44 48 62 46 39 45 20 29 54 25 55 86 108 117 125 122 127 127 116 154 159 170 180 170 181 188 187 184 178 180 174 173 170 163 148 149 141 133 136 151 155 151 157 153 142
148 78 45 44 36 47 63 60 43 35 31 40 38 17 49 101 113 122 131 125 126 132 122 135 161 161 174 168 184 186 181 189 184 183 173 167 155 156 145 147 149 150 146 152 152 150 152 144 129
95 55 40 187 123 119 81 80 57 59 47 51 52 37 74 107 119 132 140 139 137 127 128 148 128 113 169 180 179 179 194 170 180 187 173 179 175 176 187 146 164 158 160 154 153 155 152 148 145
66 39 271 157 139 95 91 75 67 53 33 31 66 62 89 109 123 137 145 145 144 135 123 143 132 133 127 125 179 188 207 205 192 195 188 192 183 172 171 146 153 152 147 157 141 139 144 144 148
101 33 281 185 167 120 112 80 82 110 352 28 67 86 100 112 124 138 146 147 143 135 131 137 136 135 112 11 206 210 208 201 196 199 202 192 184 187 191 173 166 164 157 154 149 166 167 151 135
101 329 213 217 158 142 124 122 147 174 133 80 80 93 100 109 121 138 145 148 149 146 139 133 128 262 234 97 229 220 228 209 222 213 212 199 188 195 192 181 168 174 164 172 164 151 154 140 139
227 213 221 172 22 60 153 166 133 41 70 76 89 101 102 103 117 134 145 148 153 151 148 148 163 135 96 282 249 236 229 233 245 218 233 213 199 200 202 186 167 168 173 177 177 190 157 151 157
195 182 112 12 58 203 225 152 139 39 78 88 98 108 107 106 119 136 146 148 152 153 150 158 248 251 250 115 304 245 235 251 245 232 235 224 210 206 222 214 168 168 181 185 177 175 158 171 168
185 155 70 9 296 42 235 143 65 69 88 96 103 114 119 117 118 136 147 152 147 149 151 156 154 140 162 116 338 286 237 249 251 239 229 236 228 228 223 228 197 222 179 185 187 190 175 177 191
91 204 293 347 350 283 245 230 70 74 99 112 115 120 128 126 124 134 149 156 151 151 148 156 156 143 138 131 289 243 237 245 262 267 236 236 236 238 233 252 294 226 264 249 226 207 197 189 223
306 265 248 253 313 275 251 235 228 128 132 131 129 128 133 134 136 132 146 153 158 154 155 157 161 162 157 124 260 249 250 227 234 247 245 248 232 241 245 272 273 240 242 228 247 229 238 208 232
274 254 243 248 274 279 262 251 218 131 141 144 149 145 143 141 135 133 140 147 154 156 159 161 160 154 148 148 186 262 162 204 199 253 277 249 238 247 252 254 275 262 239 274 275 218 234 221 253
264 252 234 289 354 278 264 253 248 186 172 160 155 157 151 142 137 140 141 146 151 155 160 162 165 161 160 157 153 184 147 154 191 160 214 238 238 241 253 257 270 274 266 292 289 275 251 298 307
264 248 245 277 282 263 272 255 46 159 172 173 164 164 162 155 149 145 149 148 150 153 158 160 163 162 161 160 168 269 281 271 278 282 272 258 245 244 251 262 262 279 268 291 315 316 291 298 338
292 311 298 296 291 277 299 269 260 345 101 129 156 163 164 162 155 151 152 151 152 153 152 155 157 159 161 157 150 157 155 150 146 226 288 274 256 248 251 260 266 271 276 284 299 308 285 301 326
311 327 295 289 286 284 264 279 309 8 33 17 38 128 152 156 157 154 157 154 152 148 149 151 153 157 155 158 163 159 167 158 305 313 280 272 258 245 249 263 266 272 276 296 287 306 299 311 295
321 306 298 297 283 263 291 301 307 14 327 323 340 53 120 144 151 153 155 150 151 147 146 147 151 157 159 157 163 164 163 163 150 140 287 280 257 251 245 259 276 277 284 289 304 317 321 303 314
323 328 305 314 307 292 306 297 262 274 307 299 300 36 104 133 141 143 147 147 150 152 151 149 150 156 159 162 163 163 163 164 163 147 178 196 231 238 250 241 275 288 294 294 301 322 308 318 302
160 182 264 292 289 297 310 303 304 299 282 303 331 39 94 127 134 139 145 145 147 152 154 154 152 155 157 161 165 164 164 159 167 161 202 153 189 157 183 196 262 280 286 302 316 322 319 322 322
342 274 226 255 267 277 283 299 280 302 329 336 354 34 94 126 130 137 142 144 148 152 157 157 157 156 156 159 160 164 164 167 161 161 163 164 251 295 149 152 211 276 271 304 305 325 315 312 330
222 287 283 224 274 270 299 302 299 305 310 323 342 24 80 117 122 132 139 144 149 155 159 160 162 161 158 156 157 160 163 165 163 157 176 176 265 275 246 244 196 254 282 298 304 308 323 317 324
327 312 290 270 272 275 281 300 323 313 312 316 334 355 32 107 128 134 143 149 152 152 160 167 166 164 165 163 160 160 159 161 165 164 163 180 187 236 252 245 234 230 266 291 296 293 287 321 330
290 287 295 294 302 296 277 276 325 316 318 315 319 333 341 17 114 141 146 154 159 161 162 166 167 169 169 168 167 166 163 162 162 168 167 167 176 183 196 190 188 193 188 275 288 228 214 179 195